{"data":{"norad_id":53179,"intl_designator":"2022-083AZ","name":"STARLINK-4276","alt_names":[],"object_type":"PAYLOAD","status":"ACTIVE","operator":null,"country":"US","launch_date":"2022-07-17","launch_site_code":"AFETR","launch_vehicle":null,"mission":null,"orbit_class":"UNKNOWN","rcs_meters":null,"size_class":null,"mass_kg":null,"dimensions":null,"purposes":["comms"],"wikipedia_slug":null,"has_3d_model":false,"image_url":null,"decayed_at":null,"tle_current":{"epoch":"2026-05-24T23:37:06.031776Z","epoch_age_seconds":76140,"freshness":"FRESH","line1":"1 53179U 22083AZ  26144.98409759  .00000765  00000+0  66103-4 0  9995","line2":"2 53179  53.2134 141.2193 0000846  78.0018 282.1068 15.08845744213434","mean_motion":15.08845744,"eccentricity":8.46e-5,"inclination_deg":53.2134,"raan_deg":141.2193,"arg_perigee_deg":78.0018,"mean_anomaly_deg":282.1068,"bstar":6.6103e-5,"rev_number":21343,"period_min":95.437191358111,"perigee_km":539.14058071414,"apogee_km":540.3110831053,"semimajor_km":6917.8628319097,"source":"CELESTRAK","updated_at":"2026-05-25T13:38:17.325969Z"}}}